Portada
METAR-TAF:

METAR-TAF

Aeroports :

Tri-City Airport

Parsons, Kansas, Estats Units d'Amèrica

latitud: 37-19-40N, longitud: 095-30-15W, altitud: 274 m

Observació

L'informe es va fer fa 43 minuts, a les 05:52 UTC
Vent calma
Temperatura 22°C
Humitat 83%
Pressió 1023 hPa
Visibilitat: 16.1 km
Cel clar

METAR: KPPF 200552Z AUTO 00000KT 10SM CLR 22/19 A3020 RMK AO2 SLP217 T02220194 10311 20222 403220222 51008

Hora: 01:35 (06:35 UTC)


TAF: manca

Observacions i pronòstics meteorològics de més de 4000 aeroports (METAR i TAF).

Les estacions disponibles són els punts grocs i vermells al mapa.

Posi el ratolí al punt desitjat per veure el nom de l'estació.

Feu clic per veure les observacions i els pronòstics meteorològics.

Per canviar el mapa: feu clic els botons verds amb una creu de color negre per apropar; al botó verd amb un guió per allunyar la imatge; o en les fletxes verdes per a mapes adjacents.


METAR-TAF: